Location: Córrego Montividiu
(13.2496°S, 48.8603°W)
Time: 11:52:39
(UTC+00:00)

PSLV R/B - Pass Details

Date: 11 March 2026
Orbit: 560 x 586 km, 98.0° (Epoch: 22 April)

Event Time Altitude Azimuth Distance (km) Brightness Sun altitude
Rises 22:08:10 0° 152° (SSE) 2,797 6.7 -9.6°
Reaches altitude 10° 22:10:34 10° 140° (SE) 1,888 5.7 -10.2°
Maximum altitude 22:14:05 28° 80° (E) 1,083 4.2 -11.0°
Drops below altitude 10° 22:17:34 10° 20° (NNE) 1,857 5.8 -11.9°
Sets 22:19:54 0° 9° (N) 2,743 6.7 -12.4°
